Vertical_Velocity
-0 -1 -1 -1 1 0 -1 -0 -1 -2 -1 -0 -0 -1 -1 -1 -1 -0 -0 -1 -1 -1 -0 0 -1 -0 0 1 -1 -1 -1 -1 -1 -0 -1 -1 -1 -1 -0 0 0 0 1 1 -0 0 0
-1 -2 -1 -1 -0 0 1 -1 -2 -1 -1 -1 -1 -1 -1 -1 -1 -0 -1 -1 -0 -0 -0 0 -1 0 0 -1 -2 -2 -1 -2 -1 -0 0 -0 -0 0 -1 -0 0 1 0 1 0 -0 -1
-0 -2 -1 -1 -0 0 -0 -1 -2 -1 -1 -1 -1 -1 -0 -0 -0 -1 -1 -1 -0 -0 -0 -0 -0 0 -1 -1 -1 -1 -0 0 0 -0 -1 0 1 2 3 1 0 0 1 1 1 1 -1
1 -1 -1 -1 -1 -0 -0 -1 -2 -1 -2 -1 -1 -1 -1 -1 -1 -0 0 1 -0 0 0 -0 -0 -0 0 -0 -1 -2 -1 -1 -1 -0 -0 -0 0 1 1 -0 -0 1 0 -0 0 0 -0
-0 1 -2 -0 -1 -1 -1 -1 -2 -1 -1 -0 -0 -0 -3 -1 -1 -1 0 0 0 0 -0 -1 1 1 -0 -0 1 -1 -2 -1 -1 -1 -1 -1 -1 -1 -0 0 -0 -0 0 -1 -0 -1 -0
0 1 -0 -1 -0 -1 -1 -1 -2 -1 -1 -0 0 -1 -2 -0 -1 -1 -0 -0 1 0 -0 -1 0 1 1 -0 -1 -2 -1 -0 -0 -0 -0 -1 -1 -1 -1 -0 1 0 -0 -1 0 1 -1
2 1 -1 -0 -0 -0 -1 -1 -1 0 -0 -0 0 0 -1 1 -1 -1 -1 0 1 0 -0 0 1 0 -1 -0 -1 -1 -1 -1 -1 0 -1 -1 -1 -0 -0 -1 -1 -0 -0 2 -1 -2 2
1 -0 1 -1 -1 -1 -0 -2 -1 -0 -1 -0 0 0 -0 -1 -1 -0 1 1 -0 -0 -1 0 -1 -1 -2 -1 -1 0 -1 -1 -1 -2 -2 -0 -1 -1 -1 0 -0 -1 -0 -1 1 -2 -1
-1 0 -0 -0 -1 -1 -0 -1 -1 -1 -0 -1 0 -0 -0 -0 -1 -1 -1 -1 -0 0 1 0 -0 0 -1 -1 -2 -2 -2 -1 -1 -1 -2 -1 -1 -1 -1 -1 -0 -1 -0 0 -1 -0 -2
-1 -1 1 1 -0 -0 -0 -1 -1 -1 -1 -0 0 -0 -0 0 -1 -1 -0 -0 -1 -0 0 -0 -1 -0 -1 -2 -2 -1 0 -0 -0 -1 -2 0 0 -0 0 1 1 1 0 -0 1 0 -1
-1 -0 1 1 0 0 -1 -0 -0 0 0 -1 0 -0 0 0 -1 0 -1 -1 -1 -1 -1 -0 -0 1 -1 -1 -1 0 -0 0 -0 -1 -0 -1 -2 -3 -1 -1 -2 -1 1 2 1 -0 -0
-0 1 1 0 -0 0 -0 1 0 -0 1 1 1 1 1 1 -1 -1 -0 -1 -1 -3 -2 -1 -0 0 -0 -1 -1 -1 -1 1 -0 -1 -0 -2 -2 -2 -4 -3 -2 -1 -2 -2 -1 1 3
-1 0 1 -1 -0 0 0 0 1 0 1 2 1 0 0 0 -1 -1 -1 -1 -2 -1 -1 -0 -1 -1 -1 -1 -0 -2 -1 -2 -2 -4 2 2 2 -2 -2 0 -2 -4 -3 -4 -2 2 3
-0 1 -0 -0 -1 1 0 1 1 2 2 2 1 2 1 1 0 -0 -1 -2 -1 0 -0 -0 -1 -0 -1 -1 0 -1 -2 -3 -2 -4 -4 2 7 1 -1 -2 -0 -1 -1 -4 -9 -3 3
-0 1 -1 -0 -2 -0 1 1 1 2 1 1 2 0 0 -0 -0 -0 -0 -1 -1 -0 -0 -0 0 -0 -1 -1 -3 -3 -3 -4 -3 -0 -1 -10 10 0 -1 -0 -2 2 -1 -1 -5 -0 -2
-0 -0 -1 -1 -2 -1 0 0 0 1 1 1 0 0 -1 -0 0 -0 -0 -0 -1 -0 -1 -1 -1 0 -2 -1 -2 -3 -2 -3 -2 -2 0 -4 -2 4 -1 -2 -1 -2 -2 -4 -1 -10 -6
-0 -1 -1 -1 -1 -1 -1 0 0 -0 0 -1 -0 -0 -0 1 0 -0 1 1 -0 -1 -1 -2 -2 -3 -0 -3 -1 -1 -1 -3 0 -2 -2 -2 4 10 -4 -3 -1 -1 -3 -2 -3 -2 -11
-1 -2 -1 -1 -1 -1 -1 -0 0 0 -0 -0 -2 -1 -1 -1 -0 -0 -0 -1 -0 0 -1 -3 -2 -1 0 -2 2 -3 -2 3 -1 -1 -1 0 -4 4 -0 -4 -0 2 -3 -2 -9 -3 1
0 -0 -1 0 0 0 -1 -1 -0 -0 0 1 0 0 1 2 0 1 0 -1 -1 -0 -1 -1 -3 1 1 -1 -9 2 -2 -1 -1 -0 -3 -2 1 -7 11 -2 -1 5 7 -3 -2 1 14
-2 -0 -1 0 1 0 -1 -0 0 -0 -0 0 0 -1 1 -0 -0 0 0 0 -2 -1 -1 -2 -2 -1 -2 0 -2 -5 -4 -5 -1 -2 -2 -4 6 -2 0 -2 -7 0 7 -1 -5 -6 -10
-0 -1 1 2 1 0 0 1 -1 2 0 -2 -1 -1 -0 -3 1 -1 2 0 -1 -1 2 -0 1 -0 -0 -2 -1 -4 1 -0 3 -0 -1 -7 -1 -9 7 -4 -11 -2 6 -2 1 9 -26
-1 -0 -1 0 0 -1 -1 0 1 -1 -1 -1 -2 1 2 1 2 1 1 2 2 -2 2 2 1 -2 -0 4 -10 -4 -9 -2 6 2 -3 6 -7 -4 9 6 -5 -6 10 -3 -3 12 -2
-0 1 0 -1 -0 -1 -0 -1 -0 -1 -1 -1 2 -2 1 2 3 3 1 1 -2 1 7 -1 -0 -1 1 -2 -4 -2 -1 1 -10 2 2 -1 -4 -9 0 -5 -5 2 1 2 0 5 -3
1 -0 -1 1 1 1 1 1 -1 1 -2 -1 -2 0 -0 3 4 -4 1 -0 1 -1 -1 2 -4 -3 5 1 -4 -4 1 -0 -0 1 1 -9 -0 -2 -16 2 -11 -9 -4 -5 -7 13 -2
-1 -1 -0 1 -0 1 2 1 -0 0 1 -1 -1 -2 -3 2 2 3 2 -1 1 -1 3 2 4 -0 2 5 -13 -7 -1 -1 11 5 10 3 -2 -14 -13 1 -12 45 3 -0 -11 13 7
-0 1 1 3 2 0 1 -1 -2 0 -1 -1 -0 -1 -3 -2 24 -1 1 -4 2 1 0 -1 -4 0 3 -9 -1 -12 -14 5 -9 -5 7 6 1 1 -5 -20 -32 20 -4 -3 -9 -2 -0
0 -2 -2 -0 -2 0 -1 -2 -1 -0 1 -1 -2 -4 -4 -6 22 1 -2 1 -1 -1 -5 -2 0 -1 4 -0 -6 -2 -5 2 -7 4 -1 3 0 4 3 -15 -18 17 -1 -1 -1 -14 -0
1 -0 -1 0 -2 -1 1 0 0 1 2 -0 -1 -3 -4 2 11 3 1 1 -3 0 -2 -8 -3 23 -7 5 -4 1 -10 -3 -2 1 3 5 -4 6 -0 -1 -24 8 -3 0 -1 -3 -4
-0 -4 -2 0 4 4 2 1 2 -0 0 -1 2 0 -6 -5 9 -0 1 -0 2 -0 -0 2 -1 -3 -13 -4 2 -7 -3 -8 4 -4 12 -13 6 -11 10 -4 9 -3 -0 -8 -5 1 -1
Height
5848 5849 5851 5853 5854 5855 5857 5857 5858 5858 5859 5859 5858 5857 5856 5855 5854 5853 5853 5853 5852 5852 5851 5850 5849 5848 5847 5846 5845 5843 5841 5840 5838 5837 5835 5834 5833 5832 5831 5830 5829 5828 5827 5826 5826 5825 5824
5848 5849 5851 5853 5854 5855 5856 5857 5857 5857 5857 5856 5856 5854 5853 5852 5852 5851 5851 5851 5850 5850 5849 5848 5847 5845 5845 5844 5842 5840 5838 5837 5835 5834 5832 5831 5829 5828 5827 5826 5825 5824 5823 5822 5821 5821 5820
5848 5849 5851 5853 5854 5855 5856 5856 5856 5856 5855 5854 5853 5851 5850 5850 5849 5849 5849 5849 5848 5848 5848 5846 5845 5844 5842 5841 5839 5837 5835 5833 5831 5829 5828 5826 5825 5824 5822 5821 5820 5819 5818 5817 5816 5815 5814
5847 5849 5851 5852 5854 5854 5855 5855 5855 5854 5853 5852 5851 5849 5848 5848 5848 5847 5847 5847 5847 5847 5846 5845 5843 5842 5840 5838 5835 5833 5831 5829 5827 5825 5823 5821 5819 5818 5817 5816 5815 5814 5813 5812 5811 5810 5810
5847 5849 5850 5852 5853 5854 5854 5853 5853 5852 5851 5850 5849 5848 5847 5847 5847 5847 5846 5846 5845 5845 5844 5843 5842 5840 5838 5835 5833 5831 5828 5825 5823 5821 5820 5818 5817 5815 5814 5812 5811 5810 5809 5808 5807 5805 5805
5846 5848 5850 5851 5852 5853 5853 5852 5851 5850 5849 5848 5848 5847 5847 5847 5846 5846 5845 5845 5844 5844 5842 5841 5839 5839 5836 5833 5831 5829 5827 5824 5822 5820 5818 5817 5815 5813 5811 5809 5808 5806 5805 5804 5802 5802 5799
5845 5847 5849 5850 5851 5851 5851 5850 5849 5849 5848 5847 5846 5846 5847 5846 5846 5846 5845 5845 5845 5844 5841 5839 5838 5836 5834 5832 5830 5828 5826 5823 5821 5819 5817 5814 5813 5811 5809 5807 5805 5803 5802 5800 5798 5797 5796
5844 5846 5848 5849 5849 5850 5850 5849 5848 5847 5847 5846 5845 5846 5846 5847 5846 5846 5845 5844 5843 5843 5840 5838 5836 5834 5833 5831 5829 5827 5825 5823 5820 5817 5815 5813 5810 5808 5806 5804 5801 5800 5798 5796 5795 5792 5791
5843 5844 5846 5847 5847 5848 5848 5847 5847 5847 5846 5846 5845 5846 5846 5847 5846 5846 5845 5844 5842 5840 5839 5837 5835 5833 5832 5830 5828 5825 5823 5820 5818 5815 5812 5809 5807 5805 5802 5799 5797 5795 5793 5791 5789 5787 5785
5841 5842 5844 5845 5845 5845 5846 5846 5846 5846 5846 5846 5846 5846 5846 5846 5847 5845 5844 5842 5841 5839 5837 5837 5834 5832 5831 5829 5827 5824 5822 5820 5817 5813 5809 5806 5802 5799 5796 5793 5791 5788 5786 5784 5781 5779 5778
5839 5840 5842 5843 5843 5843 5844 5844 5844 5845 5845 5845 5845 5846 5846 5846 5845 5844 5844 5842 5840 5838 5837 5836 5833 5832 5830 5829 5827 5823 5820 5817 5813 5810 5807 5802 5797 5793 5790 5787 5784 5782 5778 5776 5774 5773 5771
5837 5838 5840 5840 5840 5841 5841 5842 5842 5843 5843 5844 5845 5845 5845 5845 5844 5843 5842 5840 5839 5838 5835 5834 5832 5830 5829 5826 5823 5820 5817 5815 5810 5807 5802 5798 5793 5788 5785 5781 5777 5774 5772 5769 5767 5766 5764
5834 5836 5837 5838 5838 5838 5839 5839 5840 5841 5842 5843 5843 5843 5844 5843 5843 5841 5840 5839 5838 5835 5834 5833 5830 5828 5826 5823 5820 5817 5814 5810 5806 5803 5799 5795 5789 5784 5780 5777 5773 5768 5764 5761 5760 5757 5755
5832 5834 5835 5836 5836 5837 5837 5837 5838 5839 5840 5841 5841 5841 5841 5841 5840 5839 5838 5837 5835 5833 5831 5829 5827 5825 5822 5820 5817 5813 5810 5806 5801 5797 5791 5789 5785 5778 5774 5770 5766 5762 5759 5756 5751 5749 5747
5830 5832 5833 5833 5834 5834 5835 5835 5836 5837 5838 5839 5839 5839 5839 5838 5837 5836 5835 5833 5831 5829 5827 5825 5823 5821 5819 5815 5812 5808 5804 5800 5795 5790 5786 5778 5780 5773 5768 5763 5760 5756 5753 5750 5745 5742 5739
5828 5829 5830 5831 5832 5832 5833 5833 5834 5834 5835 5835 5836 5836 5835 5834 5833 5832 5831 5829 5827 5825 5823 5821 5819 5817 5813 5811 5807 5802 5798 5793 5788 5783 5778 5773 5770 5768 5763 5757 5753 5750 5747 5743 5738 5734 5730
5825 5826 5827 5828 5829 5830 5830 5830 5831 5831 5832 5832 5832 5832 5831 5830 5829 5828 5827 5825 5822 5821 5819 5817 5814 5810 5808 5804 5802 5797 5793 5787 5781 5775 5770 5765 5764 5763 5756 5750 5747 5745 5741 5737 5733 5728 5723
5821 5823 5824 5824 5825 5826 5826 5826 5827 5827 5827 5828 5827 5828 5826 5825 5825 5823 5821 5819 5818 5815 5813 5811 5808 5804 5801 5797 5794 5789 5786 5780 5775 5768 5762 5759 5754 5753 5752 5745 5740 5737 5735 5730 5725 5721 5715
5817 5819 5820 5821 5821 5822 5822 5822 5822 5822 5822 5822 5822 5822 5821 5820 5819 5817 5816 5814 5812 5809 5807 5804 5801 5798 5794 5791 5785 5780 5777 5772 5767 5762 5753 5749 5747 5741 5742 5741 5733 5728 5727 5722 5716 5711 5709
5813 5815 5816 5816 5817 5817 5816 5817 5818 5818 5818 5818 5817 5816 5816 5814 5813 5812 5810 5808 5805 5802 5800 5796 5793 5789 5785 5783 5776 5770 5765 5760 5756 5752 5746 5739 5737 5735 5730 5727 5721 5716 5716 5712 5705 5700 5695
5808 5810 5811 5811 5812 5812 5812 5813 5812 5813 5812 5812 5811 5811 5809 5808 5807 5805 5802 5800 5797 5793 5791 5788 5784 5779 5776 5772 5766 5763 5756 5750 5743 5739 5735 5729 5726 5725 5722 5721 5712 5705 5704 5699 5693 5689 5678
5803 5804 5806 5807 5807 5807 5807 5807 5807 5806 5806 5805 5804 5803 5802 5800 5799 5797 5794 5791 5788 5784 5781 5778 5774 5768 5767 5762 5753 5747 5742 5738 5733 5728 5723 5719 5716 5712 5707 5708 5702 5694 5696 5688 5684 5677 5668
5798 5799 5799 5800 5801 5800 5801 5801 5800 5798 5798 5797 5796 5793 5792 5791 5789 5787 5784 5780 5777 5774 5771 5767 5763 5758 5756 5750 5745 5739 5732 5726 5720 5717 5712 5708 5705 5700 5695 5691 5684 5682 5679 5674 5669 5659 5651
5791 5791 5792 5793 5794 5793 5793 5792 5791 5790 5788 5787 5785 5783 5781 5780 5779 5776 5774 5769 5765 5761 5756 5756 5750 5745 5742 5737 5732 5726 5720 5715 5710 5705 5700 5697 5693 5686 5682 5677 5670 5666 5662 5656 5651 5641 5631
5783 5784 5785 5785 5785 5784 5783 5782 5781 5780 5779 5776 5774 5771 5767 5767 5768 5768 5761 5758 5753 5750 5745 5741 5739 5733 5726 5723 5716 5708 5705 5702 5700 5694 5691 5686 5679 5673 5667 5662 5657 5653 5646 5641 5631 5630 5616
5773 5774 5774 5775 5774 5774 5772 5770 5770 5768 5766 5764 5762 5758 5755 5751 5759 5753 5749 5745 5740 5736 5733 5729 5722 5716 5712 5708 5701 5693 5689 5685 5681 5677 5674 5670 5665 5659 5654 5645 5640 5636 5630 5619 5611 5608 5602
5763 5763 5763 5763 5763 5761 5759 5758 5756 5755 5753 5750 5748 5745 5742 5737 5742 5737 5735 5730 5727 5721 5715 5709 5707 5701 5700 5693 5688 5684 5680 5673 5667 5665 5661 5654 5647 5640 5633 5621 5620 5618 5606 5598 5591 5586 5579
5751 5751 5751 5750 5748 5747 5746 5744 5742 5740 5739 5737 5734 5731 5727 5723 5724 5719 5714 5712 5708 5703 5698 5692 5688 5688 5682 5677 5674 5670 5663 5658 5653 5651 5642 5638 5630 5624 5614 5606 5602 5596 5586 5580 5573 5568 5562
5738 5737 5736 5734 5734 5732 5731 5729 5728 5726 5724 5722 5720 5716 5712 5709 5708 5703 5698 5695 5689 5686 5682 5676 5674 5670 5662 5659 5656 5651 5648 5641 5637 5632 5626 5620 5612 5608 5600 5597 5585 5575 5566 5561 5558 5553 5544